Weather in Sedanka

Russia / Kamchatka Krai     57°43′31″N   158°17′15″E
temp.,
°C
wind,
m/s
gust,
m/s
humid.,
%
clouds,
%
prec.,
mm/h
press.,
hPa
HPBL,
m
20 january, thu
thu2000:00−20ene22925 0.0 101710
03:00−20ene2291100 0.0 101614
06:00−18ne3388100 0.0 101626
09:00−19ne329190 0.0 101617
12:00−16ene23886 0.0 101638
15:00−12ne34875 0.0 101544
18:00−17ne22915 0.0 101512
21:00−19ne22925 0.0 101611
21 january, fri
fri2100:00−20ne22955 0.0 101610
03:00−21ene22955 0.0 101510
06:00−21ene22975 0.0 101512
09:00−21ene22975 0.0 101511
12:00−17ene23905 0.0 101529
15:00−14ne33865 0.0 101429
18:00−18nne32945 0.0 101413
21:00−20ne22975 0.0 101410
22 january, sat
sat2200:00−22e11995 0.0 10149
03:00−23se1110044 0.0 10149
06:00−24s1110047 0.0 10149
09:00−25s1110046 0.0 10149
12:00−22s119943 0.0 101316
15:00−19wsw11977 0.0 101211
18:00−23ssw1110042 0.0 10129
21:00−23ssw2210086 0.0 10129
23 january, sun
sun2300:00−23s2210098 0.0 10129
03:00−23sse2210096 0.1 10129
06:00−24sse2210091 0.1 10119
09:00−25sse2110097 0.0 10119
12:00−21sse2210098 0.1 101032
15:00−18se119732 0.0 100913
18:00−21se1110099 0.0 10099
21:00−21se22100100 0.0 100915
24 january, mon
mon2400:00−20se2299100 0.1 100917
03:00−21se229980 0.0 100810
06:00−23se229986 0.0 100811
09:00−20se2298100 0.0 100928
12:00−16se129478 0.0 100845
15:00−13sse1193100 0.0 100859
18:00−15e119898 0.2 10099
21:00−17ese119967 0.1 10099